Year,Month,Day,Hour,Minute,Value (Times are PST for temperature in C)
2019,03,23,00,00,8.60
2019,03,23,00,01,8.60
2019,03,23,00,02,8.60
2019,03,23,00,03,8.50
2019,03,23,00,04,8.50
2019,03,23,00,05,8.50
2019,03,23,00,06,8.40
2019,03,23,00,07,8.40
2019,03,23,00,08,8.40
2019,03,23,00,09,8.40
2019,03,23,00,10,8.40
2019,03,23,00,11,8.40
2019,03,23,00,12,8.40
2019,03,23,00,13,8.40
2019,03,23,00,14,8.40
2019,03,23,00,15,8.40
2019,03,23,00,16,8.40
2019,03,23,00,17,8.40
2019,03,23,00,18,8.40
2019,03,23,00,19,8.40
2019,03,23,00,20,8.40
2019,03,23,00,21,8.40
2019,03,23,00,22,8.40
2019,03,23,00,23,8.40
2019,03,23,00,25,8.40
2019,03,23,00,26,8.40
2019,03,23,00,27,8.30
2019,03,23,00,28,8.30
2019,03,23,00,29,8.30
2019,03,23,00,30,8.30
2019,03,23,00,31,8.30
2019,03,23,00,32,8.30
2019,03,23,00,33,8.30
2019,03,23,00,34,8.30
2019,03,23,00,35,8.30
2019,03,23,00,36,8.30
2019,03,23,00,37,8.30
2019,03,23,00,38,8.30
2019,03,23,00,39,8.30
2019,03,23,00,40,8.30
2019,03,23,00,41,8.30
2019,03,23,00,42,8.30
2019,03,23,00,43,8.30
2019,03,23,00,44,8.30
2019,03,23,00,45,8.30
2019,03,23,00,46,8.30
2019,03,23,00,47,8.40
2019,03,23,00,48,8.30
2019,03,23,00,49,8.30
2019,03,23,00,50,8.30
2019,03,23,00,51,8.40
2019,03,23,00,52,8.40
2019,03,23,00,53,8.40
2019,03,23,00,54,8.40
2019,03,23,00,55,8.40
2019,03,23,00,56,8.40
2019,03,23,00,57,8.40
2019,03,23,00,58,8.40
2019,03,23,00,59,8.40
2019,03,23,01,00,8.40
2019,03,23,01,01,8.40
2019,03,23,01,02,8.40
2019,03,23,01,03,8.40
2019,03,23,01,04,8.40
2019,03,23,01,05,8.40
2019,03,23,01,06,8.40
2019,03,23,01,07,8.40
2019,03,23,01,08,8.40
2019,03,23,01,09,8.40
2019,03,23,01,10,8.40
2019,03,23,01,11,8.40
2019,03,23,01,12,8.40
2019,03,23,01,13,8.40
2019,03,23,01,14,8.40
2019,03,23,01,15,8.40
2019,03,23,01,16,8.40
2019,03,23,01,17,8.40
2019,03,23,01,18,8.40
2019,03,23,01,19,8.40
2019,03,23,01,20,8.40
2019,03,23,01,21,8.40
2019,03,23,01,22,8.30
2019,03,23,01,23,8.30
2019,03,23,01,24,8.30
2019,03,23,01,25,8.30
2019,03,23,01,26,8.30
2019,03,23,01,27,8.30
2019,03,23,01,28,8.20
2019,03,23,01,29,8.20
2019,03,23,01,30,8.20
2019,03,23,01,31,8.10
2019,03,23,01,32,8.10
2019,03,23,01,33,8.10
2019,03,23,01,34,7.90
2019,03,23,01,35,7.90
2019,03,23,01,36,7.80
2019,03,23,01,37,7.70
2019,03,23,01,38,7.70
2019,03,23,01,39,7.60
2019,03,23,01,40,7.60
2019,03,23,01,41,7.50
2019,03,23,01,42,7.40
2019,03,23,01,43,7.40
2019,03,23,01,44,7.40
2019,03,23,01,45,7.40
2019,03,23,01,46,7.30
2019,03,23,01,47,7.30
2019,03,23,01,48,7.30
2019,03,23,01,49,7.20
2019,03,23,01,50,7.20
2019,03,23,01,51,7.20
2019,03,23,01,52,7.20
2019,03,23,01,53,7.20
2019,03,23,01,54,7.10
2019,03,23,01,55,7.10
2019,03,23,01,56,7.10
2019,03,23,01,57,7.10
2019,03,23,01,58,7.00
2019,03,23,01,59,7.00
2019,03,23,02,00,6.90
2019,03,23,02,01,6.90
2019,03,23,02,02,6.80
2019,03,23,02,03,6.80
2019,03,23,02,04,6.80
2019,03,23,02,05,6.80
2019,03,23,02,06,6.70
2019,03,23,02,07,6.70
2019,03,23,02,08,6.70
2019,03,23,02,09,6.60
2019,03,23,02,10,6.60
2019,03,23,02,11,6.60
2019,03,23,02,12,6.60
2019,03,23,02,13,6.50
2019,03,23,02,14,6.50
2019,03,23,02,15,6.50
2019,03,23,02,16,6.50
2019,03,23,02,17,6.40
2019,03,23,02,18,6.40
2019,03,23,02,19,6.40
2019,03,23,02,20,6.30
2019,03,23,02,21,6.30
2019,03,23,02,22,6.30
2019,03,23,02,23,6.30
2019,03,23,02,24,6.20
2019,03,23,02,25,6.20
2019,03,23,02,26,6.20
2019,03,23,02,27,6.20
2019,03,23,02,28,6.20
2019,03,23,02,29,6.20
2019,03,23,02,30,6.20
2019,03,23,02,31,6.10
2019,03,23,02,32,6.10
2019,03,23,02,33,6.10
2019,03,23,02,34,6.10
2019,03,23,02,35,6.10
2019,03,23,02,36,6.10
2019,03,23,02,37,6.10
2019,03,23,02,38,6.00
2019,03,23,02,39,6.00
2019,03,23,02,40,6.00
2019,03,23,02,41,6.00
2019,03,23,02,42,6.00
2019,03,23,02,43,6.00
2019,03,23,02,44,6.00
2019,03,23,02,45,6.00
2019,03,23,02,46,6.00
2019,03,23,02,47,6.00
2019,03,23,02,48,6.00
2019,03,23,02,49,6.00
2019,03,23,02,50,6.00
2019,03,23,02,51,6.00
2019,03,23,02,52,6.10
2019,03,23,02,53,6.10
2019,03,23,02,54,6.00
2019,03,23,02,55,6.00
2019,03,23,02,56,5.90
2019,03,23,02,57,5.90
2019,03,23,02,58,5.90
2019,03,23,02,59,5.90
2019,03,23,03,00,5.90
2019,03,23,03,01,5.90
2019,03,23,03,02,5.90
2019,03,23,03,03,5.90
2019,03,23,03,04,5.90
2019,03,23,03,05,5.80
2019,03,23,03,06,5.80
2019,03,23,03,07,5.80
2019,03,23,03,08,5.80
2019,03,23,03,09,5.80
2019,03,23,03,10,5.80
2019,03,23,03,11,5.80
2019,03,23,03,12,5.80
2019,03,23,03,13,5.80
2019,03,23,03,14,5.80
2019,03,23,03,15,5.80
2019,03,23,03,16,5.80
2019,03,23,03,17,5.80
2019,03,23,03,18,5.80
2019,03,23,03,19,5.90
2019,03,23,03,20,5.90
2019,03,23,03,21,5.90
2019,03,23,03,22,5.90
2019,03,23,03,23,5.90
2019,03,23,03,24,5.90
2019,03,23,03,25,5.90
2019,03,23,03,26,5.90
2019,03,23,03,27,5.90
2019,03,23,03,28,5.90
2019,03,23,03,29,5.90
2019,03,23,03,30,5.90
2019,03,23,03,31,5.90
2019,03,23,03,32,5.90
2019,03,23,03,33,5.90
2019,03,23,03,34,6.00
2019,03,23,03,35,6.00
2019,03,23,03,36,6.10
2019,03,23,03,37,6.10
2019,03,23,03,38,6.10
2019,03,23,03,39,6.10
2019,03,23,03,40,6.10
2019,03,23,03,41,6.10
2019,03,23,03,42,6.10
2019,03,23,03,43,6.10
2019,03,23,03,44,6.10
2019,03,23,03,45,6.10
2019,03,23,03,46,6.20
2019,03,23,03,47,6.20
2019,03,23,03,48,6.20
2019,03,23,03,49,6.20
2019,03,23,03,50,6.20
2019,03,23,03,51,6.20
2019,03,23,03,52,6.20
2019,03,23,03,53,6.20
2019,03,23,03,54,6.20
2019,03,23,03,55,6.10
2019,03,23,03,56,6.10
2019,03,23,03,57,6.10
2019,03,23,03,58,6.10
2019,03,23,03,59,6.10
2019,03,23,04,00,6.20
2019,03,23,04,01,6.20
2019,03,23,04,02,6.20
2019,03,23,04,03,6.20
2019,03,23,04,04,6.20
2019,03,23,04,05,6.30
2019,03,23,04,06,6.30
2019,03,23,04,07,6.30
2019,03,23,04,08,6.30
2019,03,23,04,09,6.30
2019,03,23,04,10,6.30
2019,03,23,04,11,6.30
2019,03,23,04,12,6.30
2019,03,23,04,13,6.30
2019,03,23,04,14,6.30
2019,03,23,04,15,6.30
2019,03,23,04,16,6.30
2019,03,23,04,17,6.30
2019,03,23,04,18,6.30
2019,03,23,04,19,6.30
2019,03,23,04,20,6.30
2019,03,23,04,21,6.30
2019,03,23,04,22,6.30
2019,03,23,04,23,6.30
2019,03,23,04,24,6.40
2019,03,23,04,25,6.30
2019,03,23,04,26,6.40
2019,03,23,04,27,6.40
2019,03,23,04,28,6.40
2019,03,23,04,29,6.40
2019,03,23,04,30,6.40
2019,03,23,04,31,6.40
2019,03,23,04,32,6.40
2019,03,23,04,33,6.40
2019,03,23,04,34,6.40
2019,03,23,04,35,6.40
2019,03,23,04,36,6.30
2019,03,23,04,37,6.30
2019,03,23,04,38,6.40
2019,03,23,04,39,6.40
2019,03,23,04,40,6.30
2019,03,23,04,41,6.40
2019,03,23,04,42,6.40
2019,03,23,04,43,6.40
2019,03,23,04,44,6.40
2019,03,23,04,45,6.40
2019,03,23,04,46,6.40
2019,03,23,04,47,6.40
2019,03,23,04,48,6.40
2019,03,23,04,49,6.40
2019,03,23,04,50,6.40
2019,03,23,04,51,6.40
2019,03,23,04,52,6.40
2019,03,23,04,53,6.40
2019,03,23,04,54,6.40
2019,03,23,04,55,6.40
2019,03,23,04,56,6.40
2019,03,23,04,57,6.30
2019,03,23,04,58,6.30
2019,03,23,04,59,6.30
2019,03,23,05,00,6.40
2019,03,23,05,01,6.40
2019,03,23,05,02,6.30
2019,03,23,05,03,6.30
2019,03,23,05,04,6.30
2019,03,23,05,05,6.30
2019,03,23,05,06,6.30
2019,03,23,05,07,6.30
2019,03,23,05,08,6.30
2019,03,23,05,09,6.40
2019,03,23,05,10,6.40
2019,03,23,05,11,6.40
2019,03,23,05,12,6.40
2019,03,23,05,13,6.40
2019,03,23,05,14,6.40
2019,03,23,05,15,6.30
2019,03,23,05,16,6.30
2019,03,23,05,17,6.30
2019,03,23,05,18,6.30
2019,03,23,05,19,6.30
2019,03,23,05,20,6.30
2019,03,23,05,21,6.30
2019,03,23,05,22,6.30
2019,03,23,05,23,6.30
2019,03,23,05,24,6.30
2019,03,23,05,25,6.30
2019,03,23,05,26,6.30
2019,03,23,05,27,6.30
2019,03,23,05,28,6.30
2019,03,23,05,29,6.30
2019,03,23,05,30,6.30
2019,03,23,05,31,6.30
2019,03,23,05,32,6.30
2019,03,23,05,33,6.30
2019,03,23,05,34,6.30
2019,03,23,05,35,6.30
2019,03,23,05,36,6.40
2019,03,23,05,37,6.40
2019,03,23,05,38,6.40
2019,03,23,05,39,6.40
2019,03,23,05,40,6.40
2019,03,23,05,41,6.40
2019,03,23,05,42,6.40
2019,03,23,05,43,6.40
2019,03,23,05,44,6.40
2019,03,23,05,45,6.40
2019,03,23,05,46,6.50
2019,03,23,05,47,6.40
2019,03,23,05,48,6.50
2019,03,23,05,49,6.40
2019,03,23,05,50,6.40
2019,03,23,05,51,6.40
2019,03,23,05,52,6.40
2019,03,23,05,53,6.40
2019,03,23,05,54,6.40
2019,03,23,05,55,6.40
2019,03,23,05,56,6.40
2019,03,23,05,57,6.40
2019,03,23,05,58,6.40
2019,03,23,05,59,6.50
2019,03,23,06,00,6.50
2019,03,23,06,01,6.50
2019,03,23,06,02,6.50
2019,03,23,06,03,6.50
2019,03,23,06,04,6.50
2019,03,23,06,05,6.50
2019,03,23,06,06,6.50
2019,03,23,06,07,6.50
2019,03,23,06,08,6.50
2019,03,23,06,09,6.50
2019,03,23,06,10,6.50
2019,03,23,06,11,6.50
2019,03,23,06,12,6.50
2019,03,23,06,13,6.60
2019,03,23,06,14,6.50
2019,03,23,06,15,6.50
2019,03,23,06,16,6.50
2019,03,23,06,17,6.50
2019,03,23,06,18,6.50
2019,03,23,06,19,6.50
2019,03,23,06,20,6.50
2019,03,23,06,21,6.50
2019,03,23,06,22,6.50
2019,03,23,06,23,6.50
2019,03,23,06,24,6.50
2019,03,23,06,25,6.50
2019,03,23,06,26,6.50
2019,03,23,06,27,6.50
2019,03,23,06,28,6.50
2019,03,23,06,29,6.50
2019,03,23,06,30,6.50
2019,03,23,06,31,6.50
2019,03,23,06,32,6.50
2019,03,23,06,33,6.50
2019,03,23,06,34,6.50
2019,03,23,06,35,6.50
2019,03,23,06,36,6.50
2019,03,23,06,37,6.50
2019,03,23,06,38,6.50
2019,03,23,06,39,6.50
2019,03,23,06,40,6.50
2019,03,23,06,41,6.50
2019,03,23,06,43,6.50
2019,03,23,06,44,6.50
2019,03,23,06,45,6.50
2019,03,23,06,46,6.50
2019,03,23,06,47,6.50
2019,03,23,06,48,6.50
2019,03,23,06,49,6.50
2019,03,23,06,50,6.50
2019,03,23,06,51,6.50
2019,03,23,06,52,6.50
2019,03,23,06,53,6.50
2019,03,23,06,54,6.50
2019,03,23,06,55,6.50
2019,03,23,06,56,6.50
2019,03,23,06,57,6.50
2019,03,23,06,58,6.50
2019,03,23,06,59,6.50
2019,03,23,07,00,6.50
2019,03,23,07,01,6.50
2019,03,23,07,02,6.50
2019,03,23,07,03,6.50
2019,03,23,07,04,6.50
2019,03,23,07,05,6.60
2019,03,23,07,06,6.50
2019,03,23,07,07,6.50
2019,03,23,07,08,6.50
2019,03,23,07,09,6.50
2019,03,23,07,10,6.50
2019,03,23,07,11,6.50
2019,03,23,07,12,6.50
2019,03,23,07,13,6.50
2019,03,23,07,14,6.50
2019,03,23,07,15,6.50
2019,03,23,07,16,6.50
2019,03,23,07,17,6.50
2019,03,23,07,18,6.50
2019,03,23,07,19,6.50
2019,03,23,07,20,6.50
2019,03,23,07,21,6.50
2019,03,23,07,22,6.50
2019,03,23,07,23,6.50
2019,03,23,07,24,6.50
2019,03,23,07,25,6.50
2019,03,23,07,26,6.50
2019,03,23,07,27,6.50
2019,03,23,07,28,6.50
2019,03,23,07,29,6.50
2019,03,23,07,30,6.50
2019,03,23,07,31,6.50
2019,03,23,07,32,6.50
2019,03,23,07,33,6.50
2019,03,23,07,34,6.60
2019,03,23,07,35,6.50
2019,03,23,07,36,6.60
2019,03,23,07,37,6.60
2019,03,23,07,38,6.60
2019,03,23,07,39,6.60
2019,03,23,07,40,6.50
2019,03,23,07,41,6.50
2019,03,23,07,42,6.60
2019,03,23,07,43,6.60
2019,03,23,07,44,6.50
2019,03,23,07,45,6.60
2019,03,23,07,46,6.60
2019,03,23,07,47,6.60
2019,03,23,07,48,6.60
2019,03,23,07,49,6.60
2019,03,23,07,50,6.60
2019,03,23,07,51,6.60
2019,03,23,07,52,6.60
2019,03,23,07,53,6.60
2019,03,23,07,54,6.60
2019,03,23,07,55,6.60
2019,03,23,07,56,6.60
2019,03,23,07,57,6.60
2019,03,23,07,58,6.60
2019,03,23,07,59,6.60
2019,03,23,08,00,6.60
2019,03,23,08,01,6.60
2019,03,23,08,02,6.70
2019,03,23,08,03,6.70
2019,03,23,08,04,6.70
2019,03,23,08,05,6.70
2019,03,23,08,06,6.60
2019,03,23,08,07,6.70
2019,03,23,08,08,6.70
2019,03,23,08,09,6.70
2019,03,23,08,10,6.70
2019,03,23,08,11,6.70
2019,03,23,08,12,6.70
2019,03,23,08,13,6.70
2019,03,23,08,14,6.70
2019,03,23,08,15,6.70
2019,03,23,08,16,6.70
2019,03,23,08,17,6.70
2019,03,23,08,18,6.70
2019,03,23,08,19,6.70
2019,03,23,08,20,6.70
2019,03,23,08,21,6.70
2019,03,23,08,22,6.70
2019,03,23,08,23,6.70
2019,03,23,08,24,6.70
2019,03,23,08,25,6.70
2019,03,23,08,26,6.70
2019,03,23,08,27,6.70
2019,03,23,08,28,6.70
2019,03,23,08,29,6.70
2019,03,23,08,30,6.80
2019,03,23,08,31,6.80
2019,03,23,08,32,6.80
2019,03,23,08,33,6.90
2019,03,23,08,34,6.90
2019,03,23,08,35,6.90
2019,03,23,08,36,6.90
2019,03,23,08,37,7.00
2019,03,23,08,38,7.00
2019,03,23,08,39,7.00
2019,03,23,08,40,7.00
2019,03,23,08,41,7.10
2019,03,23,08,42,7.10
2019,03,23,08,43,7.10
2019,03,23,08,44,7.10
2019,03,23,08,45,7.10
2019,03,23,08,46,7.10
2019,03,23,08,47,7.10
2019,03,23,08,48,7.10
2019,03,23,08,49,7.10
2019,03,23,08,50,7.10
2019,03,23,08,51,7.10
2019,03,23,08,52,7.10
2019,03,23,08,53,7.10
2019,03,23,08,54,7.10
2019,03,23,08,55,7.10
2019,03,23,08,56,7.10
2019,03,23,08,57,7.10
2019,03,23,08,58,7.10
2019,03,23,08,59,7.10
2019,03,23,09,00,7.10
2019,03,23,09,01,7.10
2019,03,23,09,02,7.10
2019,03,23,09,03,7.10
2019,03,23,09,04,7.10
2019,03,23,09,05,7.10
2019,03,23,09,06,7.10
2019,03,23,09,07,7.20
2019,03,23,09,08,7.20
2019,03,23,09,09,7.20
2019,03,23,09,10,7.20
2019,03,23,09,11,7.20
2019,03,23,09,12,7.20
2019,03,23,09,13,7.20
2019,03,23,09,14,7.20
2019,03,23,09,15,7.20
2019,03,23,09,16,7.20
2019,03,23,09,17,7.20
2019,03,23,09,18,7.20
2019,03,23,09,19,7.20
2019,03,23,09,20,7.30
2019,03,23,09,21,7.30
2019,03,23,09,22,7.30
2019,03,23,09,23,7.30
2019,03,23,09,24,7.30
2019,03,23,09,25,7.30
2019,03,23,09,26,7.30
2019,03,23,09,27,7.20
2019,03,23,09,28,7.20
2019,03,23,09,29,7.20
2019,03,23,09,30,7.20
2019,03,23,09,31,7.30
2019,03,23,09,32,7.30
2019,03,23,09,33,7.30
2019,03,23,09,34,7.40
2019,03,23,09,35,7.40
2019,03,23,09,36,7.40
2019,03,23,09,37,7.40
2019,03,23,09,38,7.40
2019,03,23,09,39,7.50
2019,03,23,09,40,7.60
2019,03,23,09,41,7.60
2019,03,23,09,42,7.60
2019,03,23,09,43,7.60
2019,03,23,09,44,7.70
2019,03,23,09,45,7.70
2019,03,23,09,46,7.70
2019,03,23,09,47,7.70
2019,03,23,09,48,7.70
2019,03,23,09,49,7.70
2019,03,23,09,50,7.70
2019,03,23,09,51,7.70
2019,03,23,09,52,7.70
2019,03,23,09,53,7.70
2019,03,23,09,54,7.70
2019,03,23,09,55,7.70
2019,03,23,09,56,7.70
2019,03,23,09,57,7.70
2019,03,23,09,58,7.70
2019,03,23,09,59,7.70
2019,03,23,10,00,7.70
2019,03,23,10,01,7.70
2019,03,23,10,02,7.70
2019,03,23,10,03,7.70
2019,03,23,10,04,7.70
2019,03,23,10,05,7.70
2019,03,23,10,06,7.70
2019,03,23,10,07,7.70
2019,03,23,10,08,7.70
2019,03,23,10,09,7.70
2019,03,23,10,10,7.70
2019,03,23,10,11,7.70
2019,03,23,10,12,7.70
2019,03,23,10,13,7.70
2019,03,23,10,14,7.70
2019,03,23,10,15,7.70
2019,03,23,10,16,7.70
2019,03,23,10,17,7.70
2019,03,23,10,18,7.70
2019,03,23,10,19,7.80
2019,03,23,10,20,7.80
2019,03,23,10,21,7.80
2019,03,23,10,22,7.80
2019,03,23,10,23,7.90
2019,03,23,10,24,7.90
2019,03,23,10,25,7.90
2019,03,23,10,26,7.90
2019,03,23,10,27,7.90
2019,03,23,10,28,7.90
2019,03,23,10,29,7.90
2019,03,23,10,30,7.90
2019,03,23,10,31,7.90
2019,03,23,10,32,8.00
2019,03,23,10,33,8.00
2019,03,23,10,34,8.10
2019,03,23,10,35,8.10
2019,03,23,10,36,8.10
2019,03,23,10,37,8.20
2019,03,23,10,38,8.20
2019,03,23,10,39,8.20
2019,03,23,10,40,8.20
2019,03,23,10,41,8.30
2019,03,23,10,42,8.30
2019,03,23,10,43,8.30
2019,03,23,10,44,8.30
2019,03,23,10,45,8.30
2019,03,23,10,46,8.30
2019,03,23,10,47,8.40
2019,03,23,10,48,8.40
2019,03,23,10,49,8.50
2019,03,23,10,50,8.60
2019,03,23,10,51,8.60
2019,03,23,10,52,8.60
2019,03,23,10,53,8.70
2019,03,23,10,54,8.70
2019,03,23,10,55,8.70
2019,03,23,10,56,8.70
2019,03,23,10,57,8.70
2019,03,23,10,58,8.80
2019,03,23,10,59,8.80
2019,03,23,11,01,8.80
2019,03,23,11,02,8.90
2019,03,23,11,04,8.90
2019,03,23,11,05,8.90
2019,03,23,11,06,8.90
2019,03,23,11,07,9.00
2019,03,23,11,08,9.10
2019,03,23,11,09,9.10
2019,03,23,11,10,9.20
2019,03,23,11,11,9.20
2019,03,23,11,12,9.30
2019,03,23,11,13,9.40
2019,03,23,11,14,9.50
2019,03,23,11,15,9.60
2019,03,23,11,16,9.70
2019,03,23,11,17,9.80
2019,03,23,11,18,9.90
2019,03,23,11,19,9.90
2019,03,23,11,20,10.00
2019,03,23,11,21,10.10
2019,03,23,11,22,10.10
2019,03,23,11,23,10.20
2019,03,23,11,24,10.20
2019,03,23,11,25,10.20
2019,03,23,11,26,10.10
2019,03,23,11,27,10.10
2019,03,23,11,28,10.10
2019,03,23,11,29,10.00
2019,03,23,11,30,9.90
2019,03,23,11,31,9.90
2019,03,23,11,32,9.90
2019,03,23,11,33,9.90
2019,03,23,11,34,9.90
2019,03,23,11,35,9.90
2019,03,23,11,36,9.80
2019,03,23,11,37,9.80
2019,03,23,11,38,9.80
2019,03,23,11,39,9.80
2019,03,23,11,40,9.80
2019,03,23,11,41,9.80
2019,03,23,11,42,9.90
2019,03,23,11,43,9.90
2019,03,23,11,44,10.00
2019,03,23,11,45,10.10
2019,03,23,11,46,10.20
2019,03,23,11,47,10.30
2019,03,23,11,48,10.40
2019,03,23,11,49,10.50
2019,03,23,11,50,10.60
2019,03,23,11,51,10.70
2019,03,23,11,52,10.70
2019,03,23,11,53,10.70
2019,03,23,11,54,10.80
2019,03,23,11,55,10.80
2019,03,23,11,56,10.90
2019,03,23,11,57,11.00
2019,03,23,11,58,11.10
2019,03,23,11,59,11.10
2019,03,23,12,00,11.20
2019,03,23,12,01,11.20
2019,03,23,12,02,11.30
2019,03,23,12,03,11.30
2019,03,23,12,04,11.20
2019,03,23,12,05,11.20
2019,03,23,12,06,11.20
2019,03,23,12,07,11.20
2019,03,23,12,08,11.10
2019,03,23,12,09,11.20
2019,03,23,12,10,11.20
2019,03,23,12,11,11.20
2019,03,23,12,12,11.10
2019,03,23,12,13,11.00
2019,03,23,12,14,10.90
2019,03,23,12,15,10.90
2019,03,23,12,16,10.80
2019,03,23,12,17,10.80
2019,03,23,12,18,10.80
2019,03,23,12,19,10.80
2019,03,23,12,20,10.90
2019,03,23,12,21,10.90
2019,03,23,12,22,11.00
2019,03,23,12,23,11.10
2019,03,23,12,24,11.20
2019,03,23,12,25,11.20
2019,03,23,12,26,11.20
2019,03,23,12,27,11.10
2019,03,23,12,28,11.10
2019,03,23,12,29,11.20
2019,03,23,12,30,11.20
2019,03,23,12,31,11.30
2019,03,23,12,32,11.40
2019,03,23,12,33,11.50
2019,03,23,12,34,11.60
2019,03,23,12,35,11.70
2019,03,23,12,36,11.70
2019,03,23,12,37,11.80
2019,03,23,12,38,11.90
2019,03,23,12,39,12.00
2019,03,23,12,40,12.00
2019,03,23,12,41,12.10
2019,03,23,12,42,12.20
2019,03,23,12,43,12.20
2019,03,23,12,44,12.20
2019,03,23,12,45,12.20
2019,03,23,12,46,12.10
2019,03,23,12,47,12.00
2019,03,23,12,48,11.90
2019,03,23,12,49,11.80
2019,03,23,12,50,11.70
2019,03,23,12,51,11.60
2019,03,23,12,52,11.50
2019,03,23,12,53,11.40
2019,03,23,12,54,11.30
2019,03,23,12,55,11.30
2019,03,23,12,56,11.30
2019,03,23,12,57,11.20
2019,03,23,12,58,11.20
2019,03,23,12,59,11.20
2019,03,23,13,00,11.20
2019,03,23,13,01,11.20
2019,03,23,13,02,11.20
2019,03,23,13,03,11.20
2019,03,23,13,04,11.30
2019,03,23,13,05,11.30
2019,03,23,13,06,11.30
2019,03,23,13,07,11.40
2019,03,23,13,08,11.50
2019,03,23,13,09,11.60
2019,03,23,13,10,11.70
2019,03,23,13,11,11.80
2019,03,23,13,12,12.00
2019,03,23,13,13,12.10
2019,03,23,13,14,12.10
2019,03,23,13,15,12.20
2019,03,23,13,16,12.30
2019,03,23,13,17,12.30
2019,03,23,13,18,12.40
2019,03,23,13,19,12.40
2019,03,23,13,20,12.50
2019,03,23,13,21,12.60
2019,03,23,13,22,12.60
2019,03,23,13,23,12.60
2019,03,23,13,24,12.60
2019,03,23,13,25,12.70
2019,03,23,13,26,12.70
2019,03,23,13,27,12.70
2019,03,23,13,28,12.70
2019,03,23,13,29,12.70
2019,03,23,13,30,12.70
2019,03,23,13,31,12.70
2019,03,23,13,32,12.80
2019,03,23,13,33,12.80
2019,03,23,13,34,12.90
2019,03,23,13,35,12.90
2019,03,23,13,36,13.00
2019,03,23,13,37,13.10
2019,03,23,13,38,13.20
2019,03,23,13,39,13.20
2019,03,23,13,40,13.30
2019,03,23,13,41,13.30
2019,03,23,13,42,13.30
2019,03,23,13,43,13.40
2019,03,23,13,44,13.50
2019,03,23,13,45,13.60
2019,03,23,13,46,13.70
2019,03,23,13,47,13.70
2019,03,23,13,48,13.80
2019,03,23,13,49,13.80
2019,03,23,13,50,13.80
2019,03,23,13,51,13.90
2019,03,23,13,52,13.90
2019,03,23,13,53,14.00
2019,03,23,13,54,14.10
2019,03,23,13,55,14.10
2019,03,23,13,56,14.10
2019,03,23,13,57,14.20
2019,03,23,13,58,14.20
2019,03,23,13,59,14.20
2019,03,23,14,00,14.30
2019,03,23,14,01,14.30
2019,03,23,14,02,14.40
2019,03,23,14,03,14.40
2019,03,23,14,04,14.50
2019,03,23,14,05,14.40
2019,03,23,14,06,14.50
2019,03,23,14,07,14.60
2019,03,23,14,08,14.60
2019,03,23,14,09,14.60
2019,03,23,14,10,14.60
2019,03,23,14,11,14.70
2019,03,23,14,12,14.80
2019,03,23,14,13,14.80
2019,03,23,14,14,14.80
2019,03,23,14,15,14.80
2019,03,23,14,16,14.80
2019,03,23,14,17,14.90
2019,03,23,14,18,14.90
2019,03,23,14,19,14.90
2019,03,23,14,20,15.10
2019,03,23,14,21,15.10
2019,03,23,14,22,15.10
2019,03,23,14,23,15.10
2019,03,23,14,24,15.10
2019,03,23,14,25,15.20
2019,03,23,14,26,15.10
2019,03,23,14,27,15.10
2019,03,23,14,28,15.10
2019,03,23,14,29,15.00
2019,03,23,14,30,14.90
2019,03,23,14,31,14.90
2019,03,23,14,32,14.80
2019,03,23,14,33,14.90
2019,03,23,14,34,14.90
2019,03,23,14,35,14.80
2019,03,23,14,36,14.80
2019,03,23,14,37,14.80
2019,03,23,14,38,14.80
2019,03,23,14,39,14.90
2019,03,23,14,40,14.90
2019,03,23,14,41,14.80
2019,03,23,14,42,14.80
2019,03,23,14,43,14.80
2019,03,23,14,44,14.80
2019,03,23,14,45,14.70
2019,03,23,14,46,14.70
2019,03,23,14,47,14.80
2019,03,23,14,48,14.80
2019,03,23,14,49,14.90
2019,03,23,14,50,14.90
2019,03,23,14,51,14.90
2019,03,23,14,52,14.80
2019,03,23,14,53,14.70
2019,03,23,14,54,14.60
2019,03,23,14,55,14.60
2019,03,23,14,56,14.60
2019,03,23,14,57,14.60
2019,03,23,14,58,14.50
2019,03,23,14,59,14.40
2019,03,23,15,00,14.40
2019,03,23,15,01,14.40
2019,03,23,15,02,14.40
2019,03,23,15,03,14.40
2019,03,23,15,04,14.50
2019,03,23,15,05,14.60
2019,03,23,15,06,14.60
2019,03,23,15,07,14.60
2019,03,23,15,08,14.60
2019,03,23,15,09,14.70
2019,03,23,15,10,14.70
2019,03,23,15,11,14.70
2019,03,23,15,12,14.70
2019,03,23,15,13,14.60
2019,03,23,15,14,14.60
2019,03,23,15,15,14.60
2019,03,23,15,16,14.60
2019,03,23,15,17,14.60
2019,03,23,15,18,14.60
2019,03,23,15,19,14.60
2019,03,23,15,20,14.60
2019,03,23,15,21,14.70
2019,03,23,15,22,14.70
2019,03,23,15,23,14.80
2019,03,23,15,24,14.80
2019,03,23,15,25,14.80
2019,03,23,15,26,14.90
2019,03,23,15,27,15.10
2019,03,23,15,28,15.20
2019,03,23,15,29,15.30
2019,03,23,15,30,15.30
2019,03,23,15,31,15.30
2019,03,23,15,32,15.30
2019,03,23,15,33,15.20
2019,03,23,15,34,15.20
2019,03,23,15,35,15.20
2019,03,23,15,36,15.30
2019,03,23,15,37,15.30
2019,03,23,15,38,15.30
2019,03,23,15,39,15.30
2019,03,23,15,40,15.30
2019,03,23,15,41,15.30
2019,03,23,15,42,15.30
2019,03,23,15,43,15.30
2019,03,23,15,44,15.40
2019,03,23,15,45,15.40
2019,03,23,15,46,15.40
2019,03,23,15,47,15.50
2019,03,23,15,48,15.40
2019,03,23,15,49,15.40
2019,03,23,15,50,15.40
2019,03,23,15,51,15.40
2019,03,23,15,52,15.40
2019,03,23,15,53,15.50
2019,03,23,15,54,15.40
2019,03,23,15,55,15.40
2019,03,23,15,56,15.40
2019,03,23,15,57,15.40
2019,03,23,15,58,15.40
2019,03,23,15,59,15.40
2019,03,23,16,00,15.40
2019,03,23,16,01,15.60
2019,03,23,16,02,15.60
2019,03,23,16,03,15.70
2019,03,23,16,04,15.70
2019,03,23,16,05,15.80
2019,03,23,16,06,15.80
2019,03,23,16,07,15.80
2019,03,23,16,08,15.80
2019,03,23,16,09,15.80
2019,03,23,16,10,15.80
2019,03,23,16,11,15.80
2019,03,23,16,12,15.80
2019,03,23,16,13,15.80
2019,03,23,16,14,15.80
2019,03,23,16,15,15.80
2019,03,23,16,16,15.80
2019,03,23,16,17,15.80
2019,03,23,16,18,15.90
2019,03,23,16,19,15.90
2019,03,23,16,20,16.00
2019,03,23,16,21,16.00
2019,03,23,16,22,15.90
2019,03,23,16,23,15.90
2019,03,23,16,24,15.80
2019,03,23,16,25,15.80
2019,03,23,16,26,15.80
2019,03,23,16,27,15.70
2019,03,23,16,28,15.60
2019,03,23,16,29,15.40
2019,03,23,16,30,15.20
2019,03,23,16,31,14.80
2019,03,23,16,32,14.60
2019,03,23,16,33,14.40
2019,03,23,16,34,14.20
2019,03,23,16,35,13.90
2019,03,23,16,36,13.70
2019,03,23,16,37,13.60
2019,03,23,16,38,13.40
2019,03,23,16,39,13.30
2019,03,23,16,40,13.20
2019,03,23,16,41,13.10
2019,03,23,16,42,13.00
2019,03,23,16,43,12.90
2019,03,23,16,44,12.80
2019,03,23,16,45,12.60
2019,03,23,16,46,12.60
2019,03,23,16,47,12.40
2019,03,23,16,48,12.30
2019,03,23,16,49,12.30
2019,03,23,16,50,12.20
2019,03,23,16,51,12.20
2019,03,23,16,52,12.20
2019,03,23,16,53,12.20
2019,03,23,16,54,12.10
2019,03,23,16,55,12.10
2019,03,23,16,56,12.10
2019,03,23,16,57,12.10
2019,03,23,16,58,12.10
2019,03,23,16,59,12.10
2019,03,23,17,00,12.00
2019,03,23,17,01,12.00
2019,03,23,17,03,12.00
2019,03,23,17,04,12.00
2019,03,23,17,05,12.00
2019,03,23,17,06,12.00
2019,03,23,17,07,11.90
2019,03,23,17,08,11.90
2019,03,23,17,09,11.90
2019,03,23,17,10,11.90
2019,03,23,17,11,11.90
2019,03,23,17,12,11.90
2019,03,23,17,13,11.90
2019,03,23,17,14,11.90
2019,03,23,17,15,11.90
2019,03,23,17,16,11.90
2019,03,23,17,17,11.90
2019,03,23,17,18,11.90
2019,03,23,17,19,11.90
2019,03,23,17,20,11.90
2019,03,23,17,21,11.90
2019,03,23,17,22,11.90
2019,03,23,17,23,11.90
2019,03,23,17,24,11.90
2019,03,23,17,25,12.00
2019,03,23,17,26,12.10
2019,03,23,17,27,12.10
2019,03,23,17,28,12.10
2019,03,23,17,29,12.10
2019,03,23,17,30,12.00
2019,03,23,17,31,12.10
2019,03,23,17,32,12.10
2019,03,23,17,33,12.10
2019,03,23,17,34,12.10
2019,03,23,17,35,12.10
2019,03,23,17,36,12.10
2019,03,23,17,37,12.00
2019,03,23,17,38,12.00
2019,03,23,17,39,12.10
2019,03,23,17,40,12.10
2019,03,23,17,41,12.10
2019,03,23,17,42,12.20
2019,03,23,17,43,12.20
2019,03,23,17,44,12.20
2019,03,23,17,45,12.30
2019,03,23,17,46,12.30
2019,03,23,17,47,12.40
2019,03,23,17,48,12.40
2019,03,23,17,49,12.40
2019,03,23,17,50,12.40
2019,03,23,17,51,12.40
2019,03,23,17,52,12.30
2019,03,23,17,53,12.30
2019,03,23,17,54,12.20